This is the latest recevied weather packets stored in our database for station/object KJ4EBE. If no packets are shown the sender has not sent any weather packets the latest 10 day(s).
| Time | Temp. | Humidity | Pressure | Rain* | Wind** | Luminosity | Snow |
|---|---|---|---|---|---|---|---|
| 1777862519 | 17.78° C | 65% | 1016.5 hPa | 0 mm | - | 0 W/m² | - |
| 1777862216 | 17.78° C | 66% | 1016.6 hPa | 0 mm | - | 0 W/m² | - |
| 1777861913 | 17.22° C | 66% | 1016.4 hPa | 0 mm | - | 0 W/m² | - |
| 1777861609 | 17.78° C | 66% | 1016.4 hPa | 0 mm | - | 0 W/m² | - |
| 1777861304 | 17.78° C | 65% | 1016.5 hPa | 0 mm | - | 0 W/m² | - |
| 1777861002 | 17.78° C | 65% | 1016.3 hPa | 0 mm | - | 0 W/m² | - |
| 1777860699 | 18.33° C | 64% | 1016.4 hPa | 0 mm | - | 0 W/m² | - |
| 1777860396 | 18.33° C | 62% | 1016.4 hPa | 0 mm | - | 0 W/m² | - |
| 1777860092 | 18.89° C | 61% | 1016.3 hPa | 0 mm | - | 0 W/m² | - |
| 1777859788 | 18.89° C | 60% | 1016.4 hPa | 0 mm | - | 0 W/m² | - |
| 1777859485 | 19.44° C | 59% | 1016.1 hPa | 0 mm | - | 0 W/m² | - |
| 1777859181 | 19.44° C | 58% | 1016.2 hPa | 0 mm | - | 0 W/m² | - |
| 1777858878 | 19.44° C | 58% | 1016 hPa | 0 mm | - | 0 W/m² | - |
| 1777858575 | 20° C | 57% | 1016.1 hPa | 0 mm | - | 0 W/m² | - |
| 1777858272 | 20° C | 55% | 1016.1 hPa | 0 mm | - | 0 W/m² | - |
| 1777857970 | 20° C | 55% | 1016 hPa | 0 mm | - | 0 W/m² | - |
| 1777857668 | 20° C | 54% | 1015.9 hPa | 0 mm | - | 1 W/m² | - |
| 1777857364 | 20.56° C | 53% | 1016.1 hPa | 0 mm | - | 1 W/m² | - |
| 1777857060 | 21.11° C | 52% | 1015.9 hPa | 0 mm | - | 2 W/m² | - |
| 1777856756 | 21.11° C | 51% | 1015.9 hPa | 0 mm | - | 4 W/m² | - |
| 1777856452 | 21.67° C | 50% | 1015.9 hPa | 0 mm | - | 7 W/m² | - |
| 1777856149 | 21.67° C | 49% | 1015.9 hPa | 0 mm | - | 10 W/m² | - |
| 1777855846 | 21.67° C | 49% | 1015.9 hPa | 0 mm | - | 14 W/m² | - |
| 1777855544 | 22.22° C | 48% | 1016.2 hPa | 0 mm | - | 19 W/m² | - |
| 1777855241 | 22.78° C | 47% | 1015.9 hPa | 0 mm | - | 53 W/m² | - |
* Rain latest hour (hover to see other rain measurements)
** Current wind speed in m/s (hover to see current wind gust speed)